DM7LA-WX Weather Reports


Display with metric or nautical units.
time (UTC)temp
F
wind
direction
speed
MPH
gust
MPH
rain 1hr
in
rain 24hr
in
rain mn
in
humidity
%
barometer
mb
20260903105802 68 337 0.0 0.0 0.00 1.37 0.01 85 1007.3
20260903095802 67 315 0.0 0.0 0.00 1.37 0.01 85 1007.1
20260903085802 66 292 0.0 0.0 0.00 1.37 0.01 87 1007.3
20260903075802 64 270 0.0 0.0 0.00 1.37 0.01 87 1007.0
20260903065802 61 247 0.0 0.0 0.01 1.37 0.01 90 1007.0
20260903055802 61 225 0.0 0.0 0.00 1.35 0.00 91 1007.5
20260903045802 60 180 0.0 0.0 0.00 1.35 0.00 91 1007.9
20260903035801 61 45 0.0 0.0 0.00 1.35 0.00 87 1008.6
20260903025801 61 202 0.0 0.0 0.00 1.37 0.00 87 1009.3
20260903015801 61 225 0.0 0.0 0.00 1.37 0.00 85 1009.7
20260903005801 61 247 0.0 0.0 0.00 1.37 0.00 84 1011.2
20260902235801 62 292 0.0 0.0 0.00 1.37 0.00 82 1011.8
20260902225801 62 247 0.0 0.0 0.00 1.37 0.00 81 1012.4
20260902215802 61 247 0.0 0.0 0.00 1.37 0.00 83 1012.6
20260902205801 62 270 0.0 0.0 0.00 1.37 0.00 86 1013.0
20260902195802 63 225 0.0 0.0 0.00 1.37 0.00 84 1013.3
20260902185802 64 292 0.0 0.0 0.00 1.37 0.00 75 1013.3
20260902175802 65 270 0.0 0.0 0.00 1.37 0.00 76 1013.1
20260902165801 67 270 0.0 0.0 0.00 1.37 0.00 75 1013.2
20260902155801 67 292 0.0 0.0 0.00 1.37 0.00 76 1013.5
20260902145801 67 270 0.0 0.0 0.00 1.37 0.00 76 1013.6
20260902135801 68 292 0.0 0.0 0.00 1.37 0.00 72 1013.4
20260902125801 67 292 0.0 0.0 0.00 1.37 0.00 70 1013.5
20260902115802 68 292 0.0 0.0 0.00 1.37 0.00 75 1013.6